Palacios, TX

7:30 AM CDT on May 27, 2018 (GMT -0500)
Palacios Municipal

Weather History for KPSX - June, 2013

Change the Weather History Date:

Sunday, June 9, 2013

  Actual Average Record
Temperature  
Mean Temperature 82 °F -  
Max Temperature 91 °F 87 °F 94 °F (1943)
Min Temperature 75 °F 74 °F 65 °F (1986)
Cooling Degree Days 18    
Growing Degree Days 32 (Base 50)    
Moisture  
Dew Point 72 °F    
Average Humidity 69    
Maximum Humidity 83    
Minimum Humidity 55    
Precipitation  
Precipitation 0.07 in - - ()
Sea Level Pressure  
Sea Level Pressure 29.89 in    
Wind  
Wind Speed 9 mph (SE)    
Max Wind Speed 14 mph    
Max Gust Speed 21 mph    
Visibility 10 miles    
Events Rain , Thunderstorm    
Averages and records for this station are not official NWS values.
T = Trace of Precipitation, MM = Missing Value Source: NWS Daily Summary

Daily Weather History Graph

Daily Weather History Graph

Search for Another Location

Airport or City:

Astronomy

Jun. 09, 2013 Rise Set
Actual Time 6:26 AM CDT 8:22 PM CDT
Civil Twilight 5:59 AM CDT 8:49 PM CDT
Nautical Twilight 5:26 AM CDT 9:21 PM CDT
Astronomical Twilight 4:52 AM CDT 9:56 PM CDT
Moon 7:19 AM CDT (6/9) 9:15 PM CDT (6/9)
Length of Visible Light 14h 49m
Length of Day
13h 56m
New Moon, 1% of the Moon is Illuminated
Jun 9
New Moon
Jun 16
First Quarter
Jun 23
Full
Jun 29
Last Quarter
Jul 8
New

Hourly Weather History & Observations

Time (CDT) Temp. Heat Index Dew Point Humidity Pressure Visibility Wind Dir Wind Speed Gust Speed Precip Events Conditions
1:53 AM 84.0 °F 91.2 °F 73.9 °F 72% 29.88 in 10.0 mi SSE 11.5 mph - N/A   Partly Cloudy
2:53 AM 84.0 °F 91.2 °F 73.9 °F 72% 29.87 in 10.0 mi SE 13.8 mph - N/A   Clear
3:53 AM 84.0 °F 91.9 °F 75.0 °F 74% 29.87 in 10.0 mi SSE 8.1 mph - N/A   Partly Cloudy
4:53 AM 84.0 °F 91.9 °F 75.0 °F 74% 29.86 in 10.0 mi SSE 8.1 mph - N/A   Scattered Clouds
5:53 AM 84.9 °F 93.3 °F 75.0 °F 72% 29.86 in 10.0 mi SSE 10.4 mph - N/A   Clear
6:53 AM 84.9 °F 94.1 °F 75.9 °F 74% 29.87 in 10.0 mi SSE 9.2 mph - N/A   Clear
7:48 AM 86.0 °F 95.1 °F 75.2 °F 70% 29.88 in 10.0 mi SSE 8.1 mph - N/A Thunderstorm Clear
7:53 AM 86.0 °F 96.0 °F 75.9 °F 72% 29.88 in 10.0 mi SSE 8.1 mph - N/A Thunderstorm Clear
8:15 AM 86.0 °F 95.1 °F 75.2 °F 70% 29.87 in 10.0 mi SSE 12.7 mph - N/A Thunderstorm Partly Cloudy
8:42 AM 87.8 °F 97.6 °F 75.2 °F 66% 29.88 in 10.0 mi South 9.2 mph - N/A   Scattered Clouds
8:53 AM 87.1 °F 97.3 °F 75.9 °F 69% 29.88 in 10.0 mi South 9.2 mph - N/A   Partly Cloudy
9:53 AM 90.0 °F 102.5 °F 77.0 °F 65% 29.89 in 10.0 mi South 12.7 mph - N/A   Scattered Clouds
10:34 AM 89.6 °F 99.8 °F 75.2 °F 62% 29.89 in 10.0 mi South 8.1 mph - N/A   Mostly Cloudy
10:50 AM 89.6 °F 99.8 °F 75.2 °F 62% 29.89 in 10.0 mi SSW 9.2 mph - N/A   Scattered Clouds
10:53 AM 89.1 °F 99.1 °F 75.0 °F 63% 29.89 in 10.0 mi South 9.2 mph - N/A   Scattered Clouds
11:53 AM 89.1 °F 100.2 °F 75.9 °F 65% 29.89 in 10.0 mi SSW 8.1 mph - N/A   Clear
12:40 PM 84.2 °F 86.6 °F 66.2 °F 55% 29.92 in 10.0 mi North 12.7 mph - N/A Thunderstorm Scattered Clouds
12:49 PM 82.4 °F 84.6 °F 66.2 °F 58% 29.91 in 10.0 mi North 10.4 mph - N/A   Mostly Cloudy
12:53 PM 82.0 °F 84.5 °F 66.9 °F 60% 29.91 in 10.0 mi North 8.1 mph - N/A   Mostly Cloudy
1:01 PM 82.4 °F 84.6 °F 66.2 °F 58% 29.90 in 10.0 mi North 9.2 mph - N/A Thunderstorm Thunderstorm
1:53 PM 80.1 °F 82.3 °F 66.9 °F 64% 29.92 in 10.0 mi North 12.7 mph - 0.00 in Rain , Thunderstorm Light Thunderstorms and Rain
2:39 PM 75.2 °F - 68.0 °F 78% 29.92 in 2.5 mi Calm Calm - 0.01 in Rain Heavy Rain
2:44 PM 75.2 °F - 69.8 °F 83% 29.92 in 4.0 mi Calm Calm - 0.01 in Rain , Thunderstorm Light Rain
2:53 PM 77.0 °F - 69.1 °F 76% 29.91 in 10.0 mi Calm Calm - 0.02 in Rain , Thunderstorm Light Rain
3:08 PM 77.0 °F - 69.8 °F 78% 29.88 in 10.0 mi ENE 6.9 mph - 0.01 in   Mostly Cloudy
3:53 PM 80.1 °F 83.2 °F 70.0 °F 71% 29.88 in 10.0 mi East 12.7 mph 20.7 mph 0.04 in   Clear
4:53 PM 84.0 °F 88.4 °F 70.0 °F 63% 29.90 in 10.0 mi Variable 6.9 mph - 0.01 in   Clear
5:53 PM 82.0 °F 85.9 °F 70.0 °F 67% 29.87 in 10.0 mi NE 6.9 mph - N/A   Clear
6:53 PM 82.0 °F 85.9 °F 70.0 °F 67% 29.87 in 10.0 mi ENE 6.9 mph - N/A   Clear
7:53 PM 81.0 °F 84.9 °F 71.1 °F 72% 29.88 in 10.0 mi ENE 4.6 mph - N/A   Clear
8:53 PM 79.0 °F - 71.1 °F 77% 29.90 in 10.0 mi North - - N/A   Clear
9:53 PM 81.0 °F 85.2 °F 72.0 °F 74% 29.92 in 10.0 mi ESE 6.9 mph - N/A   Clear
10:53 PM 80.1 °F 83.8 °F 72.0 °F 76% 29.94 in 10.0 mi ESE 6.9 mph - N/A   Clear
11:53 PM 80.1 °F 83.8 °F 72.0 °F 76% 29.94 in 10.0 mi East 3.5 mph - N/A   Clear